FLOCK 3M-3 (42996 NORAD) Tracking and Keplerian Element Data

This shows tracking and keplerian element data for the satellite.

Feedback or suggestion? Click here.




ElementValue
Catalog42996
NameFLOCK 3M-3
Epoch Orbit13744
Epoch Day114.82983428
Epoch Year2020
RAAN222.1935
Inclination97.3848
Eccentricity0.0013895
Argument of Perigee304.1101
Mean Anonmoly55.8816
Mean Motion15.2157065
Decay Rate1.918E-05
L11 42996U 17068K 20114.82983428 .00001918 00000-0 87977-4 0 9995
L22 42996 97.3848 222.1935 0013895 304.1101 55.8816 15.21570650137445



Live tracking and technical data element details for FLOCK 3M-3 (NORAD 42996). FLOCK 3M-3 can be tracked NOW for your location showing map with azimuth and elevation plus other details from your city location.







IsCatalogInMostPopularTable: catalog: 42996, numindb: 555
Update: records affected: 1



GetName: 42996 FLOCK 3M-3

Hit Count: updated at: Fri, 16 May 2025 10:44:44 GMT